Location: Latham
(42.7470°N, 73.7590°W)
Time: 00:29:29
(UTC+00:00)

Daily predictions for brighter satellites

Satellite Brightness Start Highest point End
(mag) Time Altitude Azimuth Time Altitude Azimuth Time Altitude Azimuth
Centaur D AC-29 3.9 01:01:29 10° SW 01:06:31 28° SSE 01:23:40 10° ESE
Cosmos 407 Rocket 4.2 01:02:22 10° SSW 01:07:30 60° WNW 01:12:38 10° NNE
Cosmos 540 Rocket 3.8 01:03:51 10° N 01:08:53 51° ENE 01:13:52 10° SE
BREEZE-M DEB (TANK) 1.9 01:09:42 10° SW 01:11:58 65° SSE 01:14:43 10° ENE
BREEZE-M DEB (TANK) 4.1 00:56:51 10° WSW 01:13:00 72° NW 01:16:54 10° NE
MOS 1-B Rocket 4.2 01:08:19 10° S 01:14:32 72° WSW 01:20:13 10° NNW
SL-16 R/B 3.2 01:10:50 10° N 01:15:58 34° NE 01:21:03 10° ESE
RESURS DK-1 4.3 01:13:28 10° N 01:16:14 17° NE 01:19:00 10° E
Cosmos 2333 Rocket 4.1 01:13:36 10° N 01:17:31 18° NE 01:21:25 10° E
Cosmos 2082 Rocket 2.8 01:12:07 10° SW 01:17:47 66° WNW 01:23:29 10° NNE
Cosmos 2369 3.9 01:14:14 10° NNW 01:19:58 78° WSW 01:25:41 10° SSE
Cosmos 1954 Rocket 4.0 01:18:55 10° SSW 01:24:11 77° ESE 01:29:28 10° NNE
Atlas Centaur 2 3.8 01:17:37 10° WSW 01:24:39 34° S 01:31:54 10° ESE
USA 186 4.5 01:23:55 10° SW 01:26:24 19° W 01:28:53 10° NW
Okean-O 2.6 01:22:20 10° SSE 01:26:44 88° ENE 01:31:10 10° NNW
SeaSat 1 3.2 01:22:47 10° SE 01:27:22 41° NE 01:31:58 10° NNW
EXPRESS MD2 3.4 01:23:59 10° WSW 01:27:25 51° NNW 01:29:46 10° NE
Cosmos 1515 Rocket 3.7 01:25:33 10° SSW 01:29:50 75° W 01:34:11 10° N
Cosmos 1707 2.5 01:27:42 10° S 01:31:17 81° E 01:34:55 10° N
Cosmos 676 Rocket 4.0 01:29:53 10° SSW 01:35:12 78° ESE 01:40:31 10° NNE
USA 245 4.0 01:32:54 13° SE 01:35:39 37° ENE 01:39:35 10° N
CZ-4C R/B 3.4 01:32:15 10° NNE 01:36:25 84° E 01:40:32 10° SSW
IRS-1A Rocket 4.3 01:31:54 10° SSE 01:37:19 64° ENE 01:42:47 10° N
SPOT 5 2.6 01:35:19 10° SSE 01:39:36 82° ENE 01:44:00 10° N
MetOp-B 4.1 01:35:29 10° SSE 01:40:50 84° ENE 01:46:13 10° NNW
Cosmos 1553 Rocket 4.0 01:34:53 10° N 01:41:06 88° W 01:47:23 10° S
Cosmos 2228 Rocket 4.3 01:41:13 14° SE 01:44:17 27° E 01:48:06 10° NNE
S3M 4.3 01:38:16 10° N 01:44:31 54° ENE 01:49:59 13° SSE
Okean O Rocket 3.4 01:43:18 10° SSW 01:47:08 29° W 01:50:58 10° NW
Tiangong -1.0 01:46:08 10° W 01:48:59 30° SSW 01:50:36 19° SSE
Cosmos 1869 Rocket 3.7 01:45:08 10° N 01:49:33 63° E 01:53:12 15° SSE
SL-4 R/B 4.3 01:48:07 10° WNW 01:51:15 24° N 01:54:32 10° NE
Cosmos 1356 Rocket 4.4 01:50:09 16° SE 01:52:36 29° E 01:56:15 10° NNE
Cosmos 2266 Rocket 4.1 01:47:31 10° S 01:53:45 67° E 02:00:06 10° NNE
Meteor 1-22 Rocket 4.4 01:49:08 10° N 01:54:45 62° ENE 01:59:32 15° SSE
ERS-1 Rocket 3.0 01:50:48 14° SSE 01:55:10 74° ENE 02:00:12 10° N
Cosmos 1655 Rocket 4.4 01:49:34 11° SSE 01:55:19 47° E 02:01:24 10° NNE
Cosmos 1400 Rocket 2.8 01:53:37 12° S 01:57:12 60° E 02:01:01 10° NNE
Cosmos 1980 Rocket 3.8 01:52:29 10° NW 01:57:17 29° WSW 02:02:03 10° SSW
Cosmos 841 Rocket 3.7 01:52:52 10° NNW 01:58:06 61° ENE 02:01:57 18° SE
Cosmos 2322 Rocket 2.8 01:53:37 10° NNW 01:59:04 45° ENE 02:03:10 17° SE
Timation 1 Rocket 4.3 01:54:43 10° SSW 02:00:36 68° ESE 02:06:32 10° NNE
USA 234 3.3 01:56:36 10° NE 02:03:10 89° NNW 02:09:43 10° SW
ATLAS CENTAUR R/B 1.1 02:02:10 10° SSW 02:05:30 47° ESE 02:08:55 10° NE
Spot 2 Rocket 3.5 02:02:19 17° SSE 02:06:10 69° ENE 02:11:14 10° N
Cosmos 1300 3.3 02:04:22 10° N 02:07:42 37° ENE 02:09:14 24° SE
Cosmos 1441 Rocket 3.7 02:04:36 10° NNW 02:08:08 53° W 02:11:04 14° S
Cosmos 2278 3.8 02:05:08 10° NNW 02:10:51 74° WSW 02:15:10 18° SSE
Meteor 2-10 Rocket 3.7 02:06:11 10° N 02:11:43 64° ENE 02:15:21 21° SSE
Cosmos 1315 Rocket 4.5 02:14:28 17° ESE 02:15:07 18° E 02:17:50 10° NE
Cosmos 1908 4.2 02:12:55 10° NNW 02:16:17 38° W 02:19:19 12° SSW
Resurs 01 Rocket 4.4 02:15:02 10° WSW 02:16:28 11° W 02:17:55 10° WNW
Cosmos 1953 4.3 02:16:13 10° NE 02:18:24 15° ENE 02:19:31 13° E
Terra 1.9 02:16:11 18° S 02:19:40 77° WSW 02:24:24 10° NNW
Cosmos 1862 Rocket 3.9 02:18:12 24° SSE 02:20:26 46° E 02:24:40 10° NNE
Cosmos 2219 Rocket 3.4 02:19:39 10° N 02:24:39 31° NE 02:28:14 16° ESE
Landsat 5 3.6 02:23:59 10° NNE 02:27:55 51° E 02:29:45 29° SSE
Ariane Rocket 3.1 02:27:25 21° S 02:30:52 76° WSW 02:36:00 10° NNW
Okean 3 3.6 02:32:22 32° SSE 02:33:57 50° E 02:37:59 10° NNE
BlueWalker 3 4.3 02:41:16 10° ENE 02:41:16 10° ENE 02:41:21 10° ENE
SL-27 R/B 1.8 02:38:03 46° SSW 02:38:44 77° WNW 02:41:31 10° NNE
SL-14 R/B 3.4 02:37:34 21° SSW 02:39:56 67° W 02:43:43 10° N
Cosmos 2315 Rocket 4.1 02:34:00 10° N 02:40:24 85° W 02:44:42 22° S
Cosmos 1707 Rocket 3.6 02:38:10 22° S 02:40:59 86° W 02:45:26 10° N
COSMOS 2455 4.5 02:41:38 15° ESE 02:41:43 15° ESE 02:45:05 10° ENE
SJ 16-02 1.4 02:40:03 32° SSE 02:41:49 57° ESE 02:46:04 10° NNE
Cosmos 1850 Rocket 4.3 02:39:39 10° SSW 02:44:52 67° WNW 02:50:04 10° NNE
Landsat 4 4.3 02:44:04 27° SSW 02:45:28 43° W 02:48:47 10° NNW
ATLAS 2AS CENTAUR R/B 2.7 02:39:19 10° NNW 02:46:08 72° NE 02:50:04 26° SE
Meteor 1-4 Rocket 2.1 02:49:24 56° E 02:49:24 56° E 02:52:16 10° NNE
Cosmos 2360 Rocket 2.2 02:43:44 10° NNW 02:49:26 86° ENE 02:52:15 31° SSE
Cosmos 1346 Rocket 2.7 02:46:05 10° NNW 02:49:57 75° W 02:51:15 39° S
Cosmos 1932 4.4 02:46:56 11° SSW 02:53:02 68° ESE 02:59:18 10° NE
RESURS DK-1 2.9 02:50:18 10° NW 02:54:13 47° WSW 02:55:35 33° SSW
SPOT 3 Rocket 4.1 02:51:36 22° SSW 02:54:45 50° W 02:59:47 10° NNW
ARIANE 5 R/B 3.8 02:53:44 25° E 02:55:04 30° ENE 02:58:50 10° N
SL-16 R/B 3.2 02:54:53 10° NW 03:00:04 38° WSW 03:03:14 21° SSW
Cosmos 968 Rocket 3.7 02:57:17 14° SSW 03:01:40 69° WNW 03:06:52 10° NNE
Cosmos 2333 Rocket 2.2 02:56:44 10° NNW 03:02:31 83° WSW 03:05:07 34° SSE
USA 281 3.8 02:58:49 24° ESE 03:02:36 49° ENE 03:08:53 10° NNW
Meteor 2-20 4.5 02:57:32 10° N 03:03:44 79° W 03:07:03 29° S
Cosmos 1733 Rocket 3.5 02:59:37 10° NNW 03:03:56 56° W 03:05:48 31° SSW
SeaSat 1 3.9 03:02:21 18° SSW 03:04:53 28° WSW 03:09:06 10° NW
Cosmos 1455 2.3 03:06:51 10° N 03:10:15 48° E 03:10:21 47° E
Okean 1-7 2.9 03:11:24 46° S 03:12:39 85° E 03:16:59 10° N
Cosmos 839 Rocket 4.1 03:05:49 10° NNW 03:12:39 77° ENE 03:15:33 34° SE
Atlas Centaur 2 3.9 03:06:26 10° WSW 03:13:07 27° SSW 03:14:19 26° S
Cosmos 1814 Rocket 4.0 03:08:05 10° NNW 03:13:25 86° WSW 03:15:23 40° SSE
Cosmos 1833 4.5 03:08:30 11° SW 03:13:56 66° WNW 03:19:33 10° NNE
Cosmos 1242 Rocket 3.6 03:15:36 26° NE 03:15:36 26° NE 03:17:07 10° NNE
GP-B 3.4 03:11:05 10° NNE 03:15:22 48° E 03:16:05 44° ESE
Cosmos 1908 Rocket 3.6 03:13:24 10° N 03:17:44 63° E 03:18:33 51° SE
GENESIS II 4.5 03:20:54 47° ENE 03:20:54 47° ENE 03:23:50 10° NE
Cosmos 1782 Rocket 4.4 03:16:28 10° N 03:20:25 34° ENE 03:21:05 32° E
Cosmos 2237 Rocket 4.2 03:19:39 10° N 03:23:37 19° NE 03:27:33 10° E
Cosmos 1745 Rocket 4.3 03:24:05 37° SE 03:26:21 54° E 03:32:31 10° NNE
Cosmos 2322 4.2 03:20:49 10° NNW 03:26:22 52° ENE 03:28:35 33° ESE
Cosmos 1408 4.3 03:31:03 18° NE 03:31:03 18° NE 03:32:17 10° NE
SL-4 R/B 4.0 03:27:30 10° NW 03:30:55 26° NNE 03:34:30 10° ENE
Cosmos 2333 4.4 03:26:34 10° NNW 03:32:15 62° WSW 03:34:15 40° S
Okean 2 4.0 03:36:15 38° WSW 03:37:16 49° W 03:41:11 10° N
Nadezhda 1 Rocket 4.0 03:31:21 10° N 03:37:38 68° E 03:39:51 41° SSE
Cosmos 1300 Rocket 4.0 03:34:53 10° N 03:39:01 44° ENE 03:39:27 43° E
Cosmos 1386 Rocket 4.4 03:37:50 39° S 03:40:20 81° E 03:46:35 10° N
Cosmos 2322 Rocket 3.6 03:38:08 10° NW 03:42:50 27° WSW 03:44:58 21° SW
ATLAS CENTAUR R/B 4.0 03:41:08 10° W 03:43:24 16° NW 03:45:42 10° N
CENTAUR R/B 4.3 03:46:31 12° E 03:46:31 12° E 03:48:25 10° ENE
ALOS 2 3.6 03:45:46 32° E 03:46:31 35° ENE 03:50:30 10° N
Cosmos 2297 Rocket 3.1 03:47:54 31° ESE 03:48:12 31° ESE 03:53:06 10° NE
PSLV R/B 3.7 03:45:43 10° N 03:49:43 81° WNW 03:50:01 73° SW
Cosmos 1315 Rocket 4.2 03:49:43 26° WSW 03:50:58 33° WNW 03:54:37 10° N
Cosmos 1953 3.1 03:50:51 10° NNW 03:54:24 38° W 03:54:38 37° WSW
Cosmos 1703 Rocket 4.2 03:55:52 39° WSW 03:57:01 49° WNW 04:01:22 10° N
Meteor 2-5 Rocket 4.3 03:59:22 40° SE 04:00:37 46° E 04:06:11 10° NNE
Cosmos 1486 Rocket 3.9 04:06:10 60° SSE 04:06:59 73° ESE 04:12:11 10° NNE
COSMOS 2428 2.6 04:02:03 10° NNW 04:07:47 88° ENE 04:09:13 53° SSE
Cosmos 2219 Rocket 2.8 04:03:22 10° NW 04:08:42 42° WSW 04:09:56 37° SW
Cosmos 2242 Rocket 3.5 04:10:52 75° SSE 04:11:14 85° E 04:15:49 10° N
Cosmos 371 Rocket 3.2 04:12:01 66° SE 04:12:19 68° ESE 04:17:07 10° NNE
BlueWalker 3 2.6 04:15:31 43° WNW 04:16:17 51° NNW 04:19:57 10° NE
SJ 16-02 4.0 04:18:04 10° W 04:20:32 15° WNW 04:23:01 10° NNW
Cosmos 405 Rocket 3.8 04:17:43 10° N 04:20:57 35° ENE 04:20:57 35° ENE
Cosmos 1354 Rocket 4.4 04:21:25 45° ESE 04:21:47 46° ESE 04:26:50 10° NNE
Cosmos 2263 Rocket 4.4 04:22:09 10° E 04:22:25 10° E 04:23:14 10° E
H-2A R/B 2.8 04:22:54 55° WSW 04:22:58 55° W 04:27:11 10° NNW
NOSS 0 Rocket 3.9 04:17:51 10° NNW 04:24:09 82° ENE 04:26:04 47° SE
Cosmos 1709 Rocket 4.0 04:23:45 45° SSW 04:25:53 79° W 04:32:16 10° N
COSMOS 2455 2.8 04:24:43 43° SW 04:26:49 84° WNW 04:32:54 10° NNE
CZ-4C R/B 1.6 04:28:06 72° SSW 04:28:34 89° SE 04:33:59 10° NE
ARIANE 5 R/B 4.1 04:31:12 25° W 04:31:26 25° W 04:35:01 10° NW
Spot 4 4.0 04:31:54 53° WSW 04:32:20 55° W 04:37:05 10° NNW
Cosmos 2360 Rocket 4.3 04:30:04 10° WNW 04:32:35 13° W 04:34:00 12° WSW
ATLAS 2AS CENTAUR R/B 4.0 04:31:20 10° WNW 04:36:19 22° WSW 04:37:28 21° WSW
Cosmos 1703 3.7 04:40:37 52° NW 04:40:37 52° NW 04:43:48 10° N
Cosmos 2333 Rocket 4.5 04:44:14 10° W 04:45:49 11° W 04:47:07 10° WSW
USA 281 4.1 04:45:41 30° SW 04:47:14 33° WSW 04:53:07 10° NW
Cosmos 1892 3.6 04:50:46 40° NE 04:50:46 40° NE 04:53:19 10° NNE
PSLV R/B 3.4 04:45:54 10° NNE 04:50:04 84° NW 04:50:04 84° NW
Okean 1 Rocket 4.0 04:46:24 10° N 04:50:27 37° ENE 04:50:52 36° E
Cosmos 2098 Rocket 4.0 04:45:28 10° N 04:52:07 81° W 04:53:52 51° S
CZ-2C R/B 4.4 04:50:22 27° WSW 04:52:42 43° WNW 05:10:17 10° N
Cosmos 2154 Rocket 4.5 04:54:44 39° SE 04:56:25 49° E 05:02:25 10° NNE
SL-16 R/B 3.7 04:55:50 10° N 05:00:53 31° NE 05:04:46 15° ESE
Cosmos 304 Rocket 4.4 05:01:27 41° W 05:02:23 48° WNW 05:07:01 10° N
Cosmos 332 Rocket 3.6 05:05:28 74° SSE 05:05:51 80° ESE 05:10:45 10° NNE
Cosmos 2237 Rocket 2.1 05:02:39 10° NNW 05:08:19 77° WSW 05:09:21 60° S
Cosmos 990 Rocket 4.2 05:08:21 49° ESE 05:08:47 50° ESE 05:13:45 10° NNE
SL-4 R/B 2.1 05:06:03 10° NW 05:10:11 73° NNE 05:10:26 70° ENE
Meteor 1-24 Rocket 4.3 05:08:46 37° WSW 05:10:28 48° WNW 05:15:58 10° N
Cosmos 773 Rocket 4.2 05:06:09 10° NNW 05:11:08 51° WSW 05:11:26 50° WSW
Cosmos 2227 Rocket 2.1 05:10:41 59° S 05:11:45 78° ESE 05:17:26 10° NNE
H-2A R/B 2.0 05:10:08 10° N 05:14:22 71° WNW 05:14:25 71° W
Cosmos 2084 Rocket 3.6 05:18:12 59° WNW 05:18:30 61° NW 05:22:38 10° NNE
Cosmos 2151 Rocket 3.8 05:16:51 10° NNW 05:21:05 56° W 05:21:05 56° W
Cosmos 1980 3.8 05:15:50 10° NNW 05:21:22 56° WSW 05:22:05 52° SW
Cosmos 1825 2.9 05:23:12 44° NNW 05:23:12 44° NNW 05:25:49 10° N
ALOS 2 4.3 05:23:09 22° W 05:23:09 22° W 05:26:20 10° NW
GEOS 3 Rocket 3.5 05:18:50 10° NE 05:24:00 83° NW 05:25:12 54° SW
Cosmos 1455 Rocket 4.0 05:23:36 10° N 05:27:47 39° ENE 05:28:40 35° ESE
Okean 2 Rocket 3.4 05:23:33 10° NNW 05:27:54 53° W 05:27:54 53° W
Cosmos 1174 3.9 05:24:01 10° NNW 05:28:34 78° WNW 05:28:34 78° WNW
Cosmos 2181 Rocket 4.3 05:23:57 10° NNW 05:29:53 50° W 05:31:22 41° SW
BREEZE-M DEB (TANK) 3.3 05:25:16 10° WNW 05:31:47 48° N 05:33:31 20° E
Cosmos 2297 Rocket 3.2 05:29:40 27° WSW 05:32:04 40° WNW 05:37:23 10° NNE
Cosmos 1674 Rocket 4.2 05:32:54 42° W 05:33:09 42° WNW 05:37:18 10° N
Cosmos 2219 3.2 05:33:16 53° SSE 05:34:23 65° ESE 05:39:56 10° NNE
CENTAUR R/B 2.3 05:33:38 52° SSW 05:35:10 86° SE 05:42:01 10° NE
Cosmos 2074 Rocket 4.2 05:38:32 43° SW 05:40:24 60° W 05:46:33 10° N
Cosmos 1025 Rocket 2.8 05:40:57 82° SSW 05:41:09 87° W 05:45:29 10° N
Aureole 1 Rocket 3.2 05:42:32 51° ENE 05:42:32 51° ENE 05:46:09 10° NNE
Cosmos 2221 Rocket 4.5 05:43:29 35° W 05:43:54 36° WNW 05:48:02 10° N
ADEOS II 4.5 05:48:24 10° ENE 05:50:22 12° E 05:52:20 10° ESE
TIMED 4.4 05:51:00 71° SE 05:51:13 73° ESE 05:55:32 10° NNE
Helios 1A Rocket 3.0 05:58:05 57° ESE 05:58:25 61° ENE 06:02:11 10° N
Cosmos 1937 Rocket 4.0 05:58:26 39° SE 05:59:44 48° ESE 06:04:47 10° NNE
Cosmos 1461 3.5 06:00:58 39° ESE 06:00:58 39° ESE 06:04:24 10° NE
Cosmos 1898 Rocket 3.5 06:01:58 52° S 06:03:10 72° ESE 06:08:19 10° NNE
Resurs 1-4 Rocket 3.6 05:59:34 10° NE 06:03:58 26° E 06:06:19 19° SE
Cosmos 2263 Rocket 2.1 06:03:48 49° SSW 06:05:22 81° ESE 06:10:57 10° NNE
Elektron 3 4.2 06:12:41 10° NW 06:17:29 68° WSW 06:17:29 68° WSW
CZ-4C R/B 4.3 06:14:25 10° WNW 06:17:57 19° NNW 06:22:05 10° NNE
Nadezhda 3 Rocket 4.5 06:12:27 10° NNW 06:18:22 45° W 06:20:16 35° SW
NOSS 3-2 (A) 3.3 06:18:58 39° WSW 06:20:56 69° NW 06:26:59 10° NNE
Cosmos 2218 Rocket 4.1 06:18:48 33° SSE 06:21:39 69° E 06:27:50 10° NNE
Cosmos 1844 Rocket 4.3 06:22:41 16° SE 06:25:25 24° ESE 06:29:45 10° NE
NOSS 3-2 (C) 3.3 06:25:20 41° S 06:26:57 60° ESE 06:32:48 10° NE
Cosmos 2366 rocket 4.0 06:25:40 35° S 06:28:34 82° E 06:34:51 10° N
Cosmos 1869 3.1 06:27:03 10° N 06:30:46 77° E 06:31:19 61° SSE
USA 267 4.4 06:28:24 10° ENE 06:33:58 29° SE 06:36:41 22° SSE
Cosmos 1680 Rocket 3.7 06:31:16 10° NNW 06:36:29 71° ENE 06:40:02 20° SSE
Cosmos 1818 3.7 06:32:52 10° NNW 06:38:23 76° NE 06:43:49 10° SE
Cosmos 2112 Rocket 4.4 06:33:33 10° NNW 06:38:42 62° ENE 06:42:52 16° SSE
Cosmos 1437 Rocket 4.1 06:37:52 24° SE 06:39:17 31° E 06:42:39 10° NNE
Cosmos 1544 Rocket 3.5 06:35:02 10° N 06:39:29 86° E 06:41:02 40° SSE
MSX 4.1 06:33:54 10° NNE 06:39:35 63° ESE 06:42:31 29° S
Cosmos 2228 3.2 06:39:15 10° N 06:43:34 69° E 06:45:26 32° SSE
SL-16 R/B 2.7 06:39:45 10° NW 06:45:04 42° WSW 06:46:35 35° SW
BREEZE-M DEB (TANK) 1.8 06:49:11 55° ESE 06:49:11 55° ESE 06:52:22 10° SE
Cosmos 1975 Rocket 4.1 06:49:56 27° W 06:50:54 30° WNW 06:54:48 10° NNW
SL-16 R/B 3.8 06:46:44 10° SE 06:52:30 41° ENE 06:58:15 10° N
Cosmos 2082 4.3 06:51:06 27° WSW 06:53:48 45° WNW 06:59:12 10° NNE
IDEFIX/ARIANE 42P 2.5 06:49:44 10° NNE 06:55:00 83° WNW 06:57:28 33° SSW
Cosmos 2227 Rocket 4.2 06:52:32 10° W 06:56:28 19° NW 07:00:24 10° N
H-2A R/B 3.3 06:54:38 10° N 06:58:38 81° WNW 06:59:56 42° SSW
CZ-2C R/B 2.6 06:55:47 21° SSE 06:59:25 86° ENE 07:04:49 10° NNW
Cosmos 1943 3.2 06:54:21 10° NNW 07:00:00 82° ENE 07:05:37 10° SSE
SL-8 Rocket 4.3 06:57:09 29° SW 07:00:03 50° WNW 07:06:05 10° N
CZ-2C R/B 3.3 06:55:29 10° NNE 07:00:53 67° E 07:03:51 25° S
CZ-2D R/B 2.1 06:59:20 10° NNE 07:04:42 85° ESE 07:07:38 27° SSW
FENGYUN 3A 4.0 07:02:25 10° NNE 07:07:44 60° E 07:11:22 20° S
Cosmos 1606 Rocket 4.2 07:10:38 10° N 07:15:00 53° E 07:19:15 10° SSE
Cosmos 921 Rocket 3.8 07:11:51 10° N 07:15:59 49° ENE 07:20:02 10° SE
ASTEX 1 3.9 07:12:57 11° SSE 07:17:32 57° E 07:22:19 10° N
GRACE-FO 1 4.4 07:17:06 31° S 07:18:42 87° E 07:22:15 10° N
GRACE-FO 2 4.4 07:17:32 31° S 07:19:08 88° E 07:22:41 10° N
Cosmos 1606 3.9 07:16:46 10° NW 07:19:39 23° W 07:19:53 23° W
Cosmos 1727 Rocket 4.0 07:13:57 10° N 07:20:17 79° W 07:25:41 15° S
Cosmos 1536 Rocket 3.8 07:18:23 30° SW 07:20:22 56° W 07:24:45 10° N
NPP 4.0 07:16:29 10° N 07:21:41 51° WNW 07:24:45 24° SW
Cosmos 1867 3.6 07:20:35 25° SSW 07:23:48 82° ESE 07:29:18 10° NE
CENTAUR R/B 4.3 07:21:50 10° W 07:26:50 26° NNW 07:32:45 10° NNE
Cosmos 2227 4.4 07:24:37 24° SW 07:28:07 62° WNW 07:33:51 10° NNE
Cosmos 494 Rocket 4.1 07:24:13 10° NNW 07:29:29 80° ENE 07:34:43 10° SSE
Cosmos 1726 Rocket 4.1 07:26:08 10° N 07:30:32 58° E 07:34:52 10° SSE
ADEOS II 2.0 07:25:21 10° NNE 07:30:37 84° WNW 07:34:18 20° SSW
USA 238 DEB 3.5 07:28:50 22° SW 07:33:02 87° NW 07:39:45 10° NE
USA 238 3.5 07:28:52 22° SW 07:33:04 87° NW 07:39:48 10° NE
Cosmos 1000 Rocket 4.5 07:28:12 10° N 07:34:31 87° W 07:40:44 10° S
Cosmos 1812 4.0 07:33:16 10° N 07:36:37 37° ENE 07:39:56 10° SSE
Cosmos 1844 3.8 07:33:31 19° SSW 07:37:41 81° ESE 07:43:31 10° NNE
Cosmos 2058 4.1 07:36:47 10° SSE 07:40:32 38° E 07:44:20 10° NNE
Iridium 2 3.3 07:39:24 22° SSE 07:40:43 50° E 07:43:08 10° NNE
Resurs 1-4 Rocket 2.8 07:38:56 10° N 07:43:51 41° WNW 07:47:22 18° SW
SAR-Lupe-4 4.0 07:41:59 10° NNE 07:45:31 59° ESE 07:48:22 15° S
Iridium 4 Rocket 4.2 07:42:59 10° N 07:47:17 46° E 07:51:55 10° SSE
ATLAS 5 CENTAUR R/B 3.5 07:46:46 10° SE 07:47:58 12° ESE 07:49:11 10° E
Cosmos 2263 Rocket 4.1 07:46:16 10° W 07:49:58 18° NW 07:53:40 10° N
UNK 3.9 07:49:47 10° SSE 07:54:22 77° ENE 07:58:58 10° N
AQUA 4.0 07:51:40 10° N 07:56:17 57° WNW 08:00:00 16° SSW
Meteor 1-28 Rocket 3.6 08:01:25 15° SSW 08:04:02 38° W 08:07:23 10° NNW
Cosmos 2058 Rocket 3.2 08:04:11 10° N 08:08:38 79° E 08:13:01 10° S
Cosmos 1844 Rocket 3.1 08:04:20 14° SW 08:08:55 50° WNW 08:14:21 10° NNE
ALOS 2.4 08:04:40 10° N 08:09:13 58° WNW 08:13:24 12° SSW
Cosmos 1892 Rocket 3.7 08:05:35 13° SSW 08:09:27 59° W 08:13:50 10° N
Delta 2 Rocket 4.4 08:07:47 14° WSW 08:10:16 25° S 08:13:50 10° SE
METEOR-M 4.5 08:05:20 10° NNE 08:10:40 68° ESE 08:15:58 10° S
Cosmos 1607 3.9 08:07:55 10° NW 08:14:19 75° WSW 08:20:33 10° SSE
Cosmos 1544 2.6 08:11:53 10° S 08:14:27 60° E 08:17:03 10° NNE
NOSS 2-2 (C) 4.2 08:13:49 10° S 08:16:53 32° ESE 08:19:42 10° NE
USA 267 3.4 08:10:50 10° NE 08:17:23 80° NW 08:23:54 10° WSW
Alouette 2 Rocket 3.7 08:14:22 10° SSW 08:19:14 56° WNW 08:22:56 10° N
Cosmos 1605 Rocket 4.1 08:14:14 10° S 08:20:26 86° E 08:26:36 10° N
CZ-4 R/B 4.0 08:24:38 10° NNE 08:29:34 89° NW 08:34:33 10° SSW
Cosmos 2278 Rocket 4.4 08:27:10 10° SSE 08:31:24 22° E 08:35:39 10° NE
H-2A R/B 4.0 08:27:05 10° NE 08:31:40 29° E 08:36:07 10° SSE
SL-16 R/B 3.2 08:30:28 10° SSW 08:36:05 35° W 08:41:43 10° NNW
Cosmos 1626 Rocket 3.6 08:31:51 10° S 08:36:17 86° E 08:40:43 10° N
IRS-1D 4.0 08:33:26 10° NNE 08:38:36 65° ESE 08:43:37 10° S
CZ-2C R/B 4.5 08:38:34 10° WSW 08:40:23 12° W 08:42:14 10° WNW
CZ-2D R/B 4.1 08:41:12 10° NNW 08:43:56 14° WNW 08:46:40 10° W
